Air Resources Laboratory banner image
Air Resources Laboratory web site National Oceanic and Atmospheric Administration (NOAA)

me roundup


Office: GYX

ASUS41 KGYX 170705
RWRGYX
WEATHER ROUNDUP FOR MAINE AND NEW HAMPSHIRE
NATIONAL WEATHER SERVICE GRAY ME
300 AM EDT WED AUG 17 2022

MEZ002-005-006-010-012-015-018-020-021-024-026-027-029-170800-
MAINE

CITY           SKY/WX    TMP DP  RH WIND       PRES   REMARKS
PORTLAND       NOT AVBL
SANFORD        CLOUDY    67  60  78 N7        30.02F
BAR HARBOR     CLOUDY    67  55  65 N9        30.03F
WISCASSET      NOT AVBL
ROCKLAND       CLOUDY    68  58  70 NE10      30.02F
FRYEBURG       CLOUDY    60  59  96 W3        30.06
LEWISTONAUBURN MOCLDY    64  62  93 N9        30.05S
AUGUSTA        NOT AVBL
WATERVILLE     MOCLDY    64  59  83 NE8       30.04S
BANGOR         NOT AVBL
GREENVILLE       N/A     64  56  75 N5        30.11S
MILLINOCKET    NOT AVBL
HOULTON        NOT AVBL
PRESQUE ISLE   CLEAR     55  54  96 CALM      30.15F
FRENCHVILLE    NOT AVBL
CARIBOU        CLEAR     58  56  93 N5        30.14
$$

NHZ002-005-008-009-011-012-014-170800-
NEW HAMPSHIRE

CITY           SKY/WX    TMP DP  RH WIND       PRES   REMARKS
PORTSMOUTH     CLOUDY    68  55  62 N3        30.01S
ROCHESTER      NOT AVBL
NASHUA         CLOUDY    66  59  78 NW3       30.02F
MANCHESTER     NOT AVBL
CONCORD        NOT AVBL
LACONIA        CLOUDY    65  62  90 CALM      30.05F
BERLIN         NOT AVBL
WHITEFIELD     NOT AVBL
JAFFREY        NOT AVBL
KEENE          CLOUDY    61  58  90 CALM        N/A
LEBANON        NOT AVBL
MT WASHINGTON  FOG       46  46 100 E35G41      N/A  VSB 0
$$

VTZ005-007-008-170800-
VERMONT

CITY           SKY/WX    TMP DP  RH WIND       PRES   REMARKS
MONTPELIER     CLOUDY    60  57  89 CALM      30.13S FOG
BURLINGTON     MOCLDY    63  60  90 NE5       30.07
$$

MAZ007-012-024-CTZ003-RIZ002-NYZ038-NYZ072-170800-
SOUTHERN NEW ENGLAND AND NY

CITY           SKY/WX    TMP DP  RH WIND       PRES   REMARKS
BOSTON         LGT RAIN  68  61  78 N7        30.00
WORCESTER      CLOUDY    66  51  58 N8        30.03
NEW YORK CITY  MOCLDY    71  57  61 E9        30.00S
$$

ANZ081-ANZ082-ANZ150-NHZ014-MEZ023>029-170800-
COASTAL MARINE OBSERVATIONS

STATION/POSITION TIME  TEMP    WIND        PRES    WAVE
                       AIR SEA DIR/SP/G            HT/PER
                 (UTC) (F)     (DEG/KT/KT) (MB)    (FT/S)
MOUNT DESERT ROC 0600   63      20/ 15/ 16 1016.1F
MATINICUS ROCK   0600   61      40/ 14/ 15 1016.4F
ISLE OF SHOALS   0600   69      40/ 13/ 16 1015.5F
JEFFREYS LEDGE   0626      67                N/A     4/ 6
CASHES LEDGE BUO 0650   66 67   20/ 10/ 12 1014.7F   4/ 9
GEORGES BANK BUO 0650      71              1008.3F   9/ 9
$$

.............KEY..............
   WCI - WIND CHILL
   TC  - TEMPERATURE IN CELSIUS
   VSB - VISIBILITY IN MILES
   HX  - HEAT INDEX
   FAIR- INDICATES FEW OR NO CLOUDS BELOW 12,000 FT, WITH NO
         SIGNIFICANT WEATHER AND/OR OBSTRUCTIONS TO VISIBILITY.




ASUS41 KGYX 170710
RWRGYX
WEATHER ROUNDUP FOR MAINE AND NEW HAMPSHIRE
NATIONAL WEATHER SERVICE GRAY ME
300 AM EDT WED AUG 17 2022

MEZ002-005-006-010-012-015-018-020-021-024-026-027-029-170800-
MAINE

CITY           SKY/WX    TMP DP  RH WIND       PRES   REMARKS
PORTLAND       NOT AVBL
SANFORD        CLEAR     67  60  78 N7        30.02F
BAR HARBOR     CLEAR     67  55  65 N9        30.03F
WISCASSET      NOT AVBL
ROCKLAND       CLEAR     68  58  70 NE10      30.02F
FRYEBURG       CLEAR     60  59  96 W3        30.06
LEWISTONAUBURN CLEAR     64  62  93 N9        30.05S
AUGUSTA        NOT AVBL
WATERVILLE     PTCLDY    64  59  83 NE8       30.04S
BANGOR         NOT AVBL
GREENVILLE       N/A     64  56  75 N5        30.11S
MILLINOCKET    NOT AVBL
HOULTON        NOT AVBL
PRESQUE ISLE   PTCLDY    55  54  96 CALM      30.15F
FRENCHVILLE    NOT AVBL
CARIBOU        PTCLDY    58  56  93 N5        30.14
$$

NHZ002-005-008-009-011-012-014-170800-
NEW HAMPSHIRE

CITY           SKY/WX    TMP DP  RH WIND       PRES   REMARKS
PORTSMOUTH     CLOUDY    68  55  62 N3        30.01S
ROCHESTER      NOT AVBL
NASHUA         MOCLDY    66  59  78 NW3       30.02F
MANCHESTER     NOT AVBL
CONCORD        NOT AVBL
LACONIA        MOCLDY    65  62  90 CALM      30.05F
BERLIN         NOT AVBL
WHITEFIELD     NOT AVBL
JAFFREY        NOT AVBL
KEENE          MOCLDY    61  58  90 CALM        N/A
LEBANON        NOT AVBL
MT WASHINGTON  FOG       46  46 100 E35G41      N/A  VSB 0
$$

VTZ005-007-008-170800-
VERMONT

CITY           SKY/WX    TMP DP  RH WIND       PRES   REMARKS
MONTPELIER     CLOUDY    60  57  89 CALM      30.13S FOG
BURLINGTON     MOCLDY    63  60  90 NE5       30.07
$$

MAZ007-012-024-CTZ003-RIZ002-NYZ038-NYZ072-170800-
SOUTHERN NEW ENGLAND AND NY

CITY           SKY/WX    TMP DP  RH WIND       PRES   REMARKS
BOSTON         LGT RAIN  68  61  78 N7        30.00
WORCESTER      MOCLDY    66  51  58 N8        30.03
NEW YORK CITY  MOCLDY    71  57  61 E9        30.00S
$$

ANZ081-ANZ082-ANZ150-NHZ014-MEZ023>029-170800-
COASTAL MARINE OBSERVATIONS

STATION/POSITION TIME  TEMP    WIND        PRES    WAVE
                       AIR SEA DIR/SP/G            HT/PER
                 (UTC) (F)     (DEG/KT/KT) (MB)    (FT/S)
MOUNT DESERT ROC 0700   64      20/ 17/ 20 1015.3F
MATINICUS ROCK   0600   61      40/ 14/ 15 1016.4F
ISLE OF SHOALS   0600   69      40/ 13/ 16 1015.5F
JEFFREYS LEDGE   0656      67                N/A     5/ 7
CASHES LEDGE BUO 0650   66 67   20/ 10/ 12 1014.7F   4/ 9
GEORGES BANK BUO 0650      71              1008.3F   9/ 9
$$

.............KEY..............
   WCI - WIND CHILL
   TC  - TEMPERATURE IN CELSIUS
   VSB - VISIBILITY IN MILES
   HX  - HEAT INDEX
   FAIR- INDICATES FEW OR NO CLOUDS BELOW 12,000 FT, WITH NO
         SIGNIFICANT WEATHER AND/OR OBSTRUCTIONS TO VISIBILITY.






Office: BOX ASUS41 KBOX 170710 RWRBOX REGIONAL WEATHER ROUNDUP NATIONAL WEATHER SERVICE BOSTON/NORTON MA 300 AM EDT WED AUG 17 2022 NOTE: "FAIR" INDICATES FEW OR NO CLOUDS BELOW 12,000 FEET WITH NO SIGNIFICANT WEATHER AND/OR OBSTRUCTIONS TO VISIBILITY. MAZALL-170800- EASTERN MASSACHUSETTS CITY SKY/WX TMP DP RH WIND PRES REMARKS BOSTON LGT RAIN 68 61 78 N7 30.00 BEVERLY NOT AVBL LAWRENCE MOCLDY 66 56 70 NE5 30.03 BEDFORD NOT AVBL BLUE HILL NOT AVBL NORWOOD NOT AVBL MARSHFIELD NOT AVBL PLYMOUTH NOT AVBL TAUNTON NOT AVBL NEW BEDFORD NOT AVBL $$ MAZALL-170800- CAPE COD AND THE ISLANDS CITY SKY/WX TMP DP RH WIND PRES REMARKS FALMOUTH NOT AVBL HYANNIS NOT AVBL CHATHAM NOT AVBL NANTUCKET NOT AVBL MARTHAS VNYRD NOT AVBL $$ MAZALL-170800- CENTRAL AND WESTERN MASSACHUSETTS CITY SKY/WX TMP DP RH WIND PRES REMARKS WORCESTER MOCLDY 66 51 58 N8 30.03 FITCHBURG NOT AVBL ORANGE NOT AVBL SPRINGFIELD MOCLDY 62 56 80 NE3 30.00S WESTFIELD NOT AVBL NORTH ADAMS NOT AVBL PITTSFIELD PTCLDY 61 54 77 CALM 30.05S $$ RIZALL-170800- RHODE ISLAND CITY SKY/WX TMP DP RH WIND PRES REMARKS PROVIDENCE NOT AVBL NEWPORT NOT AVBL BLOCK ISLAND LGT RAIN 64 62 93 N6 29.99S SMITHFIELD LGT RAIN 62 61 96 CALM 30.01F WESTERLY NOT AVBL $$ CTZALL-170800- CONNECTICUT CITY SKY/WX TMP DP RH WIND PRES REMARKS BRADLEY INTL NOT AVBL HARTFORD NOT AVBL BRIDGEPORT NOT AVBL DANBURY CLEAR 62 56 80 SW3 30.03 GROTON NOT AVBL NEW HAVEN CLEAR 68 57 68 N3 30.01 CHESTER MOCLDY 66 59 77 CALM 30.01F MERIDEN NOT AVBL WILLIMANTIC NOT AVBL $$ MEZ002-015-021-024-NHZ003-005-008-011-012-014-VTZ005-008-170800- NORTHERN NEW ENGLAND CITY SKY/WX TMP DP RH WIND PRES REMARKS PORTLAND ME NOT AVBL BANGOR ME NOT AVBL CONCORD NH NOT AVBL MANCHESTER NH NOT AVBL NASHUA NH MOCLDY 66 59 78 NW3 30.02F PORTSMOUTH NH CLOUDY 68 55 62 N3 30.01S JAFFREY NH NOT AVBL KEENE NH MOCLDY 61 58 90 CALM N/A BURLINGTON VT MOCLDY 63 60 90 NE5 30.07 MT. WASHINGTON FOG 46 46 100 E35G41 N/A VSB 0 $$ NYZ052-076-170800- EASTERN NEW YORK CITY SKY/WX TMP DP RH WIND PRES REMARKS ALBANY NOT AVBL NEW YORK CITY MOCLDY 71 57 61 E9 30.00S $$ ANZALL-170800- MARINE OBSERVATIONS STATION/POSITION TIME TEMP WIND PRES VSBY WAVE AIR SEA DIR/SP/G HT/PER (UTC) (F) (DEG/KT/KT) (MB) (MI) (FT/S) BOSTON BUOY NOT AVBL BUZZARDS BAY NOT AVBL NANTUCKET SOUND NOT AVBL MASS BAY-STELLWA NOT AVBL ISLE OF SHOALS NOT AVBL S OF BLOCK IS NOT AVBL $$ ......................KEY......................... SKY/WX - SKY CONDITION/PRESENT WEATHER TMP - TEMPERATURE IN FAHRENHEIT DWPT - DEWPOINT IN FAHRENHEIT RH - RELATIVE HUMIDITY IN PERCENT WIND - DIRECTION AND SPEED IN MPH PRES - MEAN SEA LEVEL PRESSURE IN INCHES OF HG WCI - WIND CHILL INDEX VSB - VISIBILITY IN MILES HX - HEAT INDEX TC - TEMPERATURE IN CELSIUS VRB - VARIABLE WIND DIRECTION N/A - NOT AVAILABLE